Regional Weather Roundup
Issued by NWS Northern Indiana

Home | Current Version | Previous Version | Graphics & Text | Print | Product List | Glossary On
Versions: 1 2 3 4 5 6 7 8 9 10 11 12 13 14 15 16 17 18 19 20 21 22 23 24 25 26 27 28 29 30 31 32 33 34 35 36 37 38 39 40 41 42 43 44 45 46 47 48 49 50
000
ASUS43 KIWX 250910
RWRIWX

KIWX WEATHER ROUNDUP
NATIONAL WEATHER SERVICE NORTHERN INDIANA
500 AM EDT THU AUG 25 2016

NOTE: "FAIR" INDICATES FEW OR NO CLOUDS BELOW 12,000 FEET WITH NO
SIGNIFICANT WEATHER AND/OR OBSTRUCTIONS TO VISIBILITY.

* THESE STATIONS ARE NOT UNDER NWS QUALITY CONTROL. THEY ALSO MAY NOT
  REPORT WEATHER SUCH AS PRECIPITATION OR FOG.

INZ001>027-251000-
NORTHERN INDIANA

CITY           SKY/WX    TMP DP  RH WIND       PRES   REMARKS
GARY*          LGT RAIN  73  71  92 S5        29.99R
VALPARAISO     TSTM      70  68  93 W12       30.03R
MICHIGAN CITY* CLOUDY    72  72 100 MISG      29.99S
LAPORTE*       CLOUDY   N/A N/A N/A SW6       30.00F
KNOX*          CLOUDY    70  55  60 CALM      30.00F
SOUTH BEND     LGT RAIN  71  70  96 S10       29.99F
GOSHEN         CLOUDY    71  67  87 SW6       30.01S
MONTICELLO*    CLOUDY    72  68  88 NW7       30.01S
LOGANSPORT*    HVY RAIN  70  70 100 S5        30.04S
ROCHESTER*     LGT RAIN  72  72 100 CALM      30.01F
WARSAW*        CLOUDY    70  70 100 S5        30.02F
ANGOLA*        CLEAR     70  63  78 CALM      30.01S
FORT WAYNE     CLOUDY    69  67  93 SW5       30.03F
HUNTINGTON*    MOCLDY   N/A N/A N/A SW3       30.02F
PERU/GRISSOM   PTCLDY    73  73 100 S7        30.02F
MARION*        LGT RAIN  73  73 100 SW5       30.05F

$$
INZ028>050-251000-
CENTRAL INDIANA

CITY           SKY/WX    TMP DP  RH WIND       PRES   REMARKS
LAFAYETTE      MOCLDY    72  72 100 S3        30.01F
MUNCIE*        MOCLDY    73  70  90 SW6       30.05F
INDIANAPOLIS   CLOUDY    76  73  91 SW9       30.04S

$$
MIZ043>046-050>051-056>058-064>065-071>073-077>080-251000-
SOUTHWEST LOWER MICHIGAN

CITY           SKY/WX    TMP DP  RH WIND       PRES   REMARKS
BATTLE CREEK   MOCLDY    70  70 100 SW8       29.99S
BENTON HARBOR  CLOUDY    75  71  87 SW7       29.97S
COLDWATER*     CLOUDY    71  71 100 SW5       30.00S
HILLSDALE*     PTCLDY    70  69  94 SW3       30.01S
HOLLAND        LGT RAIN  75  73  93 W9        29.96S
GRAND RAPIDS   CLOUDY    74  71  91 SW5       29.97R
KALAMAZOO      CLOUDY    73  69  87 SW7       29.99S
STURGIS*       CLOUDY    71  68  92 CALM      30.00S
THREE RIVERS*  LGT RAIN  72  72  98 SW3       30.00R

$$
OHZ001>008-015>018-024>025-251000-
NORTHWEST OHIO

CITY           SKY/WX    TMP DP  RH WIND       PRES   REMARKS
WAUSEON*       FAIR      70  70 100 W5        30.01S
DEFIANCE       CLEAR     70  68  93 SW6       30.01S
FINDLAY        CLEAR     72  68  87 SW7       30.02S
TOLEDO EXPRESS CLEAR     71  71 100 W8        30.00R
TOLEDO METCALF CLEAR     73  72  96 SW6       30.01S
LIMA           PTCLDY    73  73 100 SW7       30.05R

$$
AND FOR LAKE MICHIGAN COASTAL AND OPEN LAKE BUOY OBSERVATIONS

STATION/POSITION TEMP    WIND        PRES    VSBY  WAVE
                 AIR SEA DIR/SP/G                  HT/PER
                 (F)     (DEG/KT/KT) (MB)    (MI)  (FT/S)
CALUMET HARBOR    73     200/  5/  8 1014.4F
MICHIGAN CITY     73     170/ 10/ 12   N/A
BURNS HARBOR      73     180/  8/ 14 1015.2F
SAINT JOSEPH      75     210/ 10/ 15 1015.6F
SOUTH LAKE BUOY   75 75  220/ 16/ 17 1013.3R         1/ 3
4 MI NW BRIDGMAN  75 74  200/ 10/ 12 1014.4F         2/ 3
MICHIGAN CITY     74 74  210/ 12/ 16   N/A           1/ 2

$$
&&




USA.gov is the U.S. government's official web portal to all federal, state and local government web resources and services.